Location: Crescent
(42.8242°N, 73.7329°W)
Time: 19:59:36
(UTC+00:00)

Vanguard 2 Rocket - Pass Details

Date: 23 February 2026
Orbit: 553 x 3287 km, 32.9° (Epoch: 5 March)

Event Time Altitude Azimuth Distance (km) Brightness Sun altitude
Rises 12:10:42 0° 181° (S) 6,444 11.5 4.6°
Reaches altitude 10° 12:17:44 10° 162° (SSE) 5,854 11.6 5.8°
Maximum altitude 12:26:53 16° 132° (SE) 5,676 12.5 7.4°
Drops below altitude 10° 12:36:26 10° 103° (ESE) 6,210 13.6 9.0°
Sets 12:44:08 0° 85° (E) 7,045 12.6 10.3°
